Year,Month,Day,Hour,Minute,Value (Times are PST for temperature in C)
2007,10,24,00,00,17.00
2007,10,24,00,01,16.90
2007,10,24,00,02,16.90
2007,10,24,00,03,16.90
2007,10,24,00,04,16.90
2007,10,24,00,05,16.80
2007,10,24,00,06,16.90
2007,10,24,00,07,16.90
2007,10,24,00,08,16.90
2007,10,24,00,09,16.90
2007,10,24,00,10,16.90
2007,10,24,00,11,17.00
2007,10,24,00,12,17.00
2007,10,24,00,13,17.00
2007,10,24,00,14,17.00
2007,10,24,00,15,17.00
2007,10,24,00,16,17.00
2007,10,24,00,17,17.00
2007,10,24,00,18,17.00
2007,10,24,00,19,17.00
2007,10,24,00,20,17.00
2007,10,24,00,21,17.00
2007,10,24,00,22,17.00
2007,10,24,00,23,17.00
2007,10,24,00,24,16.90
2007,10,24,00,25,16.90
2007,10,24,00,26,16.90
2007,10,24,00,27,16.90
2007,10,24,00,28,16.90
2007,10,24,00,29,16.90
2007,10,24,00,30,16.90
2007,10,24,00,31,16.80
2007,10,24,00,32,16.80
2007,10,24,00,33,16.80
2007,10,24,00,34,16.80
2007,10,24,00,35,16.80
2007,10,24,00,36,16.80
2007,10,24,00,37,16.80
2007,10,24,00,38,16.80
2007,10,24,00,39,16.80
2007,10,24,00,40,16.80
2007,10,24,00,41,16.80
2007,10,24,00,42,16.80
2007,10,24,00,43,16.90
2007,10,24,00,44,16.90
2007,10,24,00,45,16.90
2007,10,24,00,46,16.90
2007,10,24,00,47,16.90
2007,10,24,00,48,16.90
2007,10,24,00,49,16.80
2007,10,24,00,50,16.80
2007,10,24,00,51,16.80
2007,10,24,00,52,16.80
2007,10,24,00,53,16.70
2007,10,24,00,54,16.50
2007,10,24,00,55,16.30
2007,10,24,00,56,16.10
2007,10,24,00,57,15.90
2007,10,24,00,58,15.80
2007,10,24,00,59,15.70
2007,10,24,01,00,15.60
2007,10,24,01,01,15.50
2007,10,24,01,02,15.50
2007,10,24,01,03,15.40
2007,10,24,01,04,15.30
2007,10,24,01,05,15.30
2007,10,24,01,06,15.20
2007,10,24,01,07,15.00
2007,10,24,01,08,15.00
2007,10,24,01,09,15.00
2007,10,24,01,10,15.00
2007,10,24,01,11,15.00
2007,10,24,01,12,15.00
2007,10,24,01,13,15.00
2007,10,24,01,14,15.00
2007,10,24,01,15,15.00
2007,10,24,01,16,15.00
2007,10,24,01,17,15.00
2007,10,24,01,18,15.00
2007,10,24,01,19,15.00
2007,10,24,01,20,15.00
2007,10,24,01,21,15.00
2007,10,24,01,22,15.00
2007,10,24,01,23,15.00
2007,10,24,01,24,15.00
2007,10,24,01,25,15.00
2007,10,24,01,26,15.00
2007,10,24,01,27,14.90
2007,10,24,01,28,14.90
2007,10,24,01,29,14.80
2007,10,24,01,30,14.80
2007,10,24,01,31,14.80
2007,10,24,01,32,14.80
2007,10,24,01,33,14.80
2007,10,24,01,34,14.80
2007,10,24,01,35,14.70
2007,10,24,01,36,14.70
2007,10,24,01,37,14.70
2007,10,24,01,38,14.70
2007,10,24,01,39,14.80
2007,10,24,01,40,14.90
2007,10,24,01,41,15.00
2007,10,24,01,42,15.00
2007,10,24,01,43,15.20
2007,10,24,01,44,15.40
2007,10,24,01,45,15.60
2007,10,24,01,46,15.70
2007,10,24,01,47,15.80
2007,10,24,01,48,15.90
2007,10,24,01,49,16.00
2007,10,24,01,50,16.10
2007,10,24,01,51,16.20
2007,10,24,01,52,16.20
2007,10,24,01,53,16.30
2007,10,24,01,54,16.40
2007,10,24,01,55,16.40
2007,10,24,01,56,16.40
2007,10,24,01,57,16.50
2007,10,24,01,58,16.40
2007,10,24,01,59,16.40
2007,10,24,02,00,16.40
2007,10,24,02,01,16.40
2007,10,24,02,02,16.40
2007,10,24,02,03,16.40
2007,10,24,02,04,16.30
2007,10,24,02,05,16.30
2007,10,24,02,06,16.30
2007,10,24,02,07,16.30
2007,10,24,02,08,16.30
2007,10,24,02,09,16.30
2007,10,24,02,10,16.30
2007,10,24,02,11,16.30
2007,10,24,02,12,16.30
2007,10,24,02,13,16.30
2007,10,24,02,14,16.30
2007,10,24,02,15,16.20
2007,10,24,02,16,15.90
2007,10,24,02,17,15.70
2007,10,24,02,18,15.60
2007,10,24,02,19,15.40
2007,10,24,02,20,15.30
2007,10,24,02,21,15.10
2007,10,24,02,22,15.00
2007,10,24,02,23,15.00
2007,10,24,02,24,15.00
2007,10,24,02,25,14.90
2007,10,24,02,26,14.80
2007,10,24,02,27,14.60
2007,10,24,02,28,14.50
2007,10,24,02,29,14.50
2007,10,24,02,30,14.40
2007,10,24,02,31,14.40
2007,10,24,02,32,14.40
2007,10,24,02,33,14.40
2007,10,24,02,34,14.30
2007,10,24,02,35,14.30
2007,10,24,02,36,14.30
2007,10,24,02,37,14.30
2007,10,24,02,38,14.30
2007,10,24,02,39,14.30
2007,10,24,02,40,14.20
2007,10,24,02,41,14.20
2007,10,24,02,42,14.20
2007,10,24,02,43,14.20
2007,10,24,02,44,14.30
2007,10,24,02,45,14.30
2007,10,24,02,46,14.40
2007,10,24,02,47,14.40
2007,10,24,02,48,14.40
2007,10,24,02,49,14.30
2007,10,24,02,50,14.30
2007,10,24,02,51,14.30
2007,10,24,02,52,14.30
2007,10,24,02,53,14.30
2007,10,24,02,54,14.30
2007,10,24,02,55,14.30
2007,10,24,02,56,14.20
2007,10,24,02,57,14.20
2007,10,24,02,58,14.10
2007,10,24,02,59,14.00
2007,10,24,03,00,14.00
2007,10,24,03,01,14.00
2007,10,24,03,02,14.00
2007,10,24,03,03,14.00
2007,10,24,03,04,14.10
2007,10,24,03,05,14.20
2007,10,24,03,06,14.20
2007,10,24,03,07,14.20
2007,10,24,03,08,14.20
2007,10,24,03,09,14.30
2007,10,24,03,10,14.40
2007,10,24,03,11,14.40
2007,10,24,03,12,14.50
2007,10,24,03,13,14.60
2007,10,24,03,14,14.70
2007,10,24,03,15,14.80
2007,10,24,03,16,14.90
2007,10,24,03,17,15.00
2007,10,24,03,18,15.00
2007,10,24,03,19,15.00
2007,10,24,03,20,15.00
2007,10,24,03,21,15.10
2007,10,24,03,22,15.10
2007,10,24,03,23,15.20
2007,10,24,03,24,15.30
2007,10,24,03,25,15.30
2007,10,24,03,26,15.40
2007,10,24,03,27,15.40
2007,10,24,03,28,15.40
2007,10,24,03,29,15.40
2007,10,24,03,30,15.40
2007,10,24,03,31,15.30
2007,10,24,03,32,15.30
2007,10,24,03,33,15.30
2007,10,24,03,34,15.20
2007,10,24,03,35,15.30
2007,10,24,03,36,15.30
2007,10,24,03,37,15.20
2007,10,24,03,38,15.20
2007,10,24,03,39,15.20
2007,10,24,03,40,15.20
2007,10,24,03,41,15.20
2007,10,24,03,42,15.20
2007,10,24,03,43,15.20
2007,10,24,03,44,15.20
2007,10,24,03,45,15.20
2007,10,24,03,46,15.20
2007,10,24,03,47,15.20
2007,10,24,03,48,15.20
2007,10,24,03,49,15.30
2007,10,24,03,50,15.30
2007,10,24,03,51,15.30
2007,10,24,03,52,15.30
2007,10,24,03,53,15.30
2007,10,24,03,54,15.30
2007,10,24,03,55,15.30
2007,10,24,03,56,15.30
2007,10,24,03,57,15.30
2007,10,24,03,58,15.30
2007,10,24,03,59,15.30
2007,10,24,04,00,15.30
2007,10,24,04,01,15.30
2007,10,24,04,02,15.30
2007,10,24,04,03,15.30
2007,10,24,04,04,15.30
2007,10,24,04,05,15.20
2007,10,24,04,06,15.20
2007,10,24,04,07,15.20
2007,10,24,04,08,15.20
2007,10,24,04,09,15.20
2007,10,24,04,10,15.10
2007,10,24,04,11,15.00
2007,10,24,04,12,15.00
2007,10,24,04,13,15.00
2007,10,24,04,14,14.80
2007,10,24,04,15,14.80
2007,10,24,04,16,14.70
2007,10,24,04,17,14.60
2007,10,24,04,18,14.50
2007,10,24,04,19,14.50
2007,10,24,04,20,14.40
2007,10,24,04,21,14.40
2007,10,24,04,22,14.30
2007,10,24,04,23,14.30
2007,10,24,04,24,14.30
2007,10,24,04,25,14.30
2007,10,24,04,26,14.20
2007,10,24,04,27,14.20
2007,10,24,04,28,14.20
2007,10,24,04,29,14.20
2007,10,24,04,30,14.20
2007,10,24,04,31,14.20
2007,10,24,04,32,14.10
2007,10,24,04,33,14.10
2007,10,24,04,34,14.00
2007,10,24,04,35,14.00
2007,10,24,04,36,13.90
2007,10,24,04,37,13.90
2007,10,24,04,38,13.90
2007,10,24,04,39,13.80
2007,10,24,04,40,13.70
2007,10,24,04,41,13.70
2007,10,24,04,42,13.60
2007,10,24,04,43,13.60
2007,10,24,04,44,13.60
2007,10,24,04,45,13.60
2007,10,24,04,46,13.50
2007,10,24,04,47,13.40
2007,10,24,04,48,13.40
2007,10,24,04,49,13.40
2007,10,24,04,50,13.40
2007,10,24,04,51,13.30
2007,10,24,04,52,13.30
2007,10,24,04,53,13.30
2007,10,24,04,54,13.30
2007,10,24,04,55,13.30
2007,10,24,04,56,13.30
2007,10,24,04,57,13.30
2007,10,24,04,58,13.30
2007,10,24,04,59,13.40
2007,10,24,05,00,13.40
2007,10,24,05,01,13.40
2007,10,24,05,02,13.50
2007,10,24,05,03,13.50
2007,10,24,05,04,13.50
2007,10,24,05,05,13.60
2007,10,24,05,06,13.50
2007,10,24,05,07,13.50
2007,10,24,05,08,13.40
2007,10,24,05,09,13.40
2007,10,24,05,10,13.40
2007,10,24,05,11,13.30
2007,10,24,05,12,13.30
2007,10,24,05,13,13.20
2007,10,24,05,14,13.20
2007,10,24,05,15,13.20
2007,10,24,05,16,13.10
2007,10,24,05,17,13.10
2007,10,24,05,18,13.10
2007,10,24,05,19,13.10
2007,10,24,05,20,13.00
2007,10,24,05,21,13.00
2007,10,24,05,22,13.00
2007,10,24,05,23,12.90
2007,10,24,05,24,12.80
2007,10,24,05,25,12.80
2007,10,24,05,26,12.80
2007,10,24,05,27,12.70
2007,10,24,05,28,12.70
2007,10,24,05,29,12.70
2007,10,24,05,30,12.60
2007,10,24,05,31,12.60
2007,10,24,05,32,12.60
2007,10,24,05,33,12.60
2007,10,24,05,34,12.50
2007,10,24,05,35,12.50
2007,10,24,05,36,12.40
2007,10,24,05,37,12.40
2007,10,24,05,38,12.40
2007,10,24,05,39,12.40
2007,10,24,05,40,12.40
2007,10,24,05,41,12.50
2007,10,24,05,42,12.50
2007,10,24,05,43,12.50
2007,10,24,05,44,12.50
2007,10,24,05,45,12.50
2007,10,24,05,46,12.40
2007,10,24,05,47,12.40
2007,10,24,05,48,12.40
2007,10,24,05,49,12.40
2007,10,24,05,50,12.30
2007,10,24,05,51,12.30
2007,10,24,05,52,12.20
2007,10,24,05,53,12.20
2007,10,24,05,54,12.20
2007,10,24,05,55,12.20
2007,10,24,05,56,12.20
2007,10,24,05,57,12.20
2007,10,24,05,58,12.20
2007,10,24,05,59,12.20
2007,10,24,06,00,12.20
2007,10,24,06,01,12.20
2007,10,24,06,02,12.20
2007,10,24,06,03,12.20
2007,10,24,06,04,12.20
2007,10,24,06,05,12.20
2007,10,24,06,06,12.30
2007,10,24,06,07,12.30
2007,10,24,06,08,12.30
2007,10,24,06,09,12.30
2007,10,24,06,10,12.30
2007,10,24,06,11,12.30
2007,10,24,06,12,12.30
2007,10,24,06,13,12.30
2007,10,24,06,14,12.30
2007,10,24,06,15,12.30
2007,10,24,06,16,12.30
2007,10,24,06,17,12.20
2007,10,24,06,18,12.20
2007,10,24,06,19,12.20
2007,10,24,06,20,12.20
2007,10,24,06,21,12.20
2007,10,24,06,22,12.20
2007,10,24,06,23,12.10
2007,10,24,06,24,12.10
2007,10,24,06,25,12.10
2007,10,24,06,26,12.00
2007,10,24,06,27,12.00
2007,10,24,06,28,12.00
2007,10,24,06,29,11.90
2007,10,24,06,30,11.90
2007,10,24,06,31,11.90
2007,10,24,06,32,11.90
2007,10,24,06,33,11.90
2007,10,24,06,34,11.90
2007,10,24,06,35,11.90
2007,10,24,06,36,11.90
2007,10,24,06,37,11.80
2007,10,24,06,38,11.80
2007,10,24,06,39,11.80
2007,10,24,06,40,11.80
2007,10,24,06,41,11.80
2007,10,24,06,42,11.80
2007,10,24,06,43,11.80
2007,10,24,06,44,11.80
2007,10,24,06,45,11.80
2007,10,24,06,46,11.70
2007,10,24,06,47,11.70
2007,10,24,06,48,11.70
2007,10,24,06,49,11.70
2007,10,24,06,50,11.70
2007,10,24,06,51,11.60
2007,10,24,06,52,11.60
2007,10,24,06,53,11.60
2007,10,24,06,54,11.60
2007,10,24,06,55,11.60
2007,10,24,06,56,11.60
2007,10,24,06,57,11.60
2007,10,24,06,58,11.60
2007,10,24,06,59,11.70
2007,10,24,07,00,11.80
2007,10,24,07,01,11.80
2007,10,24,07,02,11.90
2007,10,24,07,03,12.00
2007,10,24,07,04,12.10
2007,10,24,07,05,12.10
2007,10,24,07,06,12.20
2007,10,24,07,07,12.20
2007,10,24,07,08,12.20
2007,10,24,07,09,12.20
2007,10,24,07,10,12.30
2007,10,24,07,11,12.30
2007,10,24,07,12,12.30
2007,10,24,07,13,12.30
2007,10,24,07,14,12.30
2007,10,24,07,15,12.30
2007,10,24,07,16,12.30
2007,10,24,07,17,12.30
2007,10,24,07,18,12.30
2007,10,24,07,19,12.40
2007,10,24,07,20,12.50
2007,10,24,07,21,12.60
2007,10,24,07,22,12.70
2007,10,24,07,23,12.90
2007,10,24,07,24,13.10
2007,10,24,07,25,13.30
2007,10,24,07,26,13.40
2007,10,24,07,27,13.60
2007,10,24,07,28,13.70
2007,10,24,07,29,13.80
2007,10,24,07,30,13.90
2007,10,24,07,31,13.90
2007,10,24,07,32,14.00
2007,10,24,07,33,14.20
2007,10,24,07,34,14.30
2007,10,24,07,35,14.40
2007,10,24,07,36,14.50
2007,10,24,07,37,14.60
2007,10,24,07,38,14.70
2007,10,24,07,39,14.70
2007,10,24,07,40,14.70
2007,10,24,07,41,14.70
2007,10,24,07,42,14.70
2007,10,24,07,43,14.70
2007,10,24,07,44,14.70
2007,10,24,07,45,14.80
2007,10,24,07,46,14.80
2007,10,24,07,47,14.90
2007,10,24,07,48,14.90
2007,10,24,07,49,14.90
2007,10,24,07,50,15.00
2007,10,24,07,51,15.00
2007,10,24,07,52,15.00
2007,10,24,07,53,15.00
2007,10,24,07,54,15.00
2007,10,24,07,55,15.00
2007,10,24,07,56,15.00
2007,10,24,07,57,14.90
2007,10,24,07,58,14.90
2007,10,24,07,59,14.80
2007,10,24,08,00,14.80
2007,10,24,08,01,14.80
2007,10,24,08,02,14.70
2007,10,24,08,03,14.70
2007,10,24,08,04,14.60
2007,10,24,08,05,14.50
2007,10,24,08,06,14.30
2007,10,24,08,07,14.20
2007,10,24,08,08,14.10
2007,10,24,08,09,14.00
2007,10,24,08,10,13.90
2007,10,24,08,11,13.80
2007,10,24,08,12,13.70
2007,10,24,08,13,13.70
2007,10,24,08,14,13.70
2007,10,24,08,15,13.70
2007,10,24,08,16,13.70
2007,10,24,08,17,13.70
2007,10,24,08,18,13.70
2007,10,24,08,19,13.60
2007,10,24,08,20,13.50
2007,10,24,08,21,13.50
2007,10,24,08,22,13.40
2007,10,24,08,23,13.40
2007,10,24,08,24,13.30
2007,10,24,08,25,13.30
2007,10,24,08,26,13.30
2007,10,24,08,27,13.30
2007,10,24,08,28,13.30
2007,10,24,08,29,13.30
2007,10,24,08,30,13.30
2007,10,24,08,31,13.30
2007,10,24,08,32,13.30
2007,10,24,08,33,13.30
2007,10,24,08,34,13.30
2007,10,24,08,35,13.20
2007,10,24,08,36,13.20
2007,10,24,08,37,13.20
2007,10,24,08,38,13.30
2007,10,24,08,39,13.30
2007,10,24,08,40,13.40
2007,10,24,08,41,13.50
2007,10,24,08,42,13.50
2007,10,24,08,43,13.50
2007,10,24,08,44,13.40
2007,10,24,08,45,13.40
2007,10,24,08,46,13.40
2007,10,24,08,47,13.40
2007,10,24,08,48,13.40
2007,10,24,08,49,13.30
2007,10,24,08,50,13.30
2007,10,24,08,51,13.30
2007,10,24,08,52,13.30
2007,10,24,08,53,13.30
2007,10,24,08,54,13.40
2007,10,24,08,55,13.30
2007,10,24,08,56,13.40
2007,10,24,08,57,13.40
2007,10,24,08,58,13.40
2007,10,24,08,59,13.40
2007,10,24,09,00,13.40
2007,10,24,09,01,13.40
2007,10,24,09,02,13.40
2007,10,24,09,03,13.40
2007,10,24,09,04,13.40
2007,10,24,09,05,13.40
2007,10,24,09,06,13.40
2007,10,24,09,07,13.40
2007,10,24,09,08,13.30
2007,10,24,09,09,13.30
2007,10,24,09,10,13.30
2007,10,24,09,11,13.30
2007,10,24,09,12,13.30
2007,10,24,09,13,13.30
2007,10,24,09,14,13.30
2007,10,24,09,15,13.30
2007,10,24,09,16,13.30
2007,10,24,09,17,13.30
2007,10,24,09,18,13.30
2007,10,24,09,19,13.30
2007,10,24,09,20,13.20
2007,10,24,09,21,13.10
2007,10,24,09,22,12.90
2007,10,24,09,23,12.80
2007,10,24,09,24,12.70
2007,10,24,09,25,12.60
2007,10,24,09,26,12.50
2007,10,24,09,27,12.40
2007,10,24,09,28,12.30
2007,10,24,09,29,12.30
2007,10,24,09,30,12.20
2007,10,24,09,31,12.20
2007,10,24,09,32,12.10
2007,10,24,09,33,12.10
2007,10,24,09,34,11.90
2007,10,24,09,35,11.80
2007,10,24,09,36,11.70
2007,10,24,09,37,11.50
2007,10,24,09,38,11.40
2007,10,24,09,39,11.30
2007,10,24,09,40,11.30
2007,10,24,09,41,11.20
2007,10,24,09,42,11.10
2007,10,24,09,43,11.10
2007,10,24,09,44,11.00
2007,10,24,09,45,11.00
2007,10,24,09,46,11.00
2007,10,24,09,47,10.90
2007,10,24,09,48,10.90
2007,10,24,09,49,10.90
2007,10,24,09,50,10.90
2007,10,24,09,51,10.90
2007,10,24,09,52,10.80
2007,10,24,09,53,10.80
2007,10,24,09,54,10.80
2007,10,24,09,55,10.80
2007,10,24,09,56,10.80
2007,10,24,09,57,10.80
2007,10,24,09,58,10.80
2007,10,24,09,59,10.80
2007,10,24,10,00,10.80
2007,10,24,10,01,10.80
2007,10,24,10,02,10.80
2007,10,24,10,03,10.80
2007,10,24,10,04,10.70
2007,10,24,10,05,10.70
2007,10,24,10,06,10.70
2007,10,24,10,07,10.70
2007,10,24,10,08,10.70
2007,10,24,10,09,10.70
2007,10,24,10,10,10.70
2007,10,24,10,11,10.70
2007,10,24,10,12,10.70
2007,10,24,10,13,10.70
2007,10,24,10,14,10.70
2007,10,24,10,15,10.70
2007,10,24,10,16,10.70
2007,10,24,10,17,10.70
2007,10,24,10,18,10.70
2007,10,24,10,19,10.70
2007,10,24,10,20,10.70
2007,10,24,10,21,10.60
2007,10,24,10,22,10.60
2007,10,24,10,23,10.60
2007,10,24,10,24,10.60
2007,10,24,10,25,10.60
2007,10,24,10,26,10.60
2007,10,24,10,27,10.60
2007,10,24,10,28,10.60
2007,10,24,10,29,10.70
2007,10,24,10,30,10.60
2007,10,24,10,31,10.70
2007,10,24,10,32,10.70
2007,10,24,10,33,10.70
2007,10,24,10,34,10.70
2007,10,24,10,35,10.70
2007,10,24,10,36,10.70
2007,10,24,10,37,10.70
2007,10,24,10,38,10.70
2007,10,24,10,39,10.70
2007,10,24,10,40,10.70
2007,10,24,10,41,10.70
2007,10,24,10,42,10.70
2007,10,24,10,43,10.70
2007,10,24,10,44,10.70
2007,10,24,10,45,10.70
2007,10,24,10,46,10.70
2007,10,24,10,47,10.70
2007,10,24,10,48,10.70
2007,10,24,10,49,10.70
2007,10,24,10,50,10.70
2007,10,24,10,51,10.80
2007,10,24,10,52,10.80
2007,10,24,10,53,10.80
2007,10,24,10,54,10.80
2007,10,24,10,55,10.80
2007,10,24,10,56,10.80
2007,10,24,10,57,10.80
2007,10,24,10,58,10.80
2007,10,24,10,59,10.80
2007,10,24,11,00,10.80
2007,10,24,11,01,10.80
2007,10,24,11,02,10.80
2007,10,24,11,03,10.70
2007,10,24,11,04,10.70
2007,10,24,11,05,10.70
2007,10,24,11,06,10.70
2007,10,24,11,07,10.70
2007,10,24,11,08,10.70
2007,10,24,11,09,10.70
2007,10,24,11,10,10.60
2007,10,24,11,11,10.60
2007,10,24,11,12,10.60
2007,10,24,11,13,10.60
2007,10,24,11,14,10.60
2007,10,24,11,15,10.60
2007,10,24,11,16,10.60
2007,10,24,11,17,10.60
2007,10,24,11,18,10.70
2007,10,24,11,19,10.70
2007,10,24,11,20,10.70
2007,10,24,11,21,10.70
2007,10,24,11,22,10.60
2007,10,24,11,23,10.60
2007,10,24,11,24,10.60
2007,10,24,11,25,10.60
2007,10,24,11,26,10.60
2007,10,24,11,27,10.60
2007,10,24,11,28,10.60
2007,10,24,11,29,10.60
2007,10,24,11,30,10.60
2007,10,24,11,31,10.60
2007,10,24,11,32,10.60
2007,10,24,11,33,10.60
2007,10,24,11,34,10.60
2007,10,24,11,35,10.60
2007,10,24,11,36,10.60
2007,10,24,11,37,10.60
2007,10,24,11,38,10.60
2007,10,24,11,39,10.60
2007,10,24,11,40,10.60
2007,10,24,11,41,10.60
2007,10,24,11,42,10.60
2007,10,24,11,43,10.70
2007,10,24,11,44,10.70
2007,10,24,11,45,10.70
2007,10,24,11,46,10.70
2007,10,24,11,47,10.70
2007,10,24,11,48,10.70
2007,10,24,11,49,10.70
2007,10,24,11,50,10.70
2007,10,24,11,51,10.70
2007,10,24,11,52,10.70
2007,10,24,11,53,10.70
2007,10,24,11,54,10.70
2007,10,24,11,55,10.80
2007,10,24,11,56,10.80
2007,10,24,11,57,10.80
2007,10,24,11,58,10.90
2007,10,24,11,59,10.90
2007,10,24,12,00,11.00
2007,10,24,12,01,11.10
2007,10,24,12,02,11.20
2007,10,24,12,03,11.30
2007,10,24,12,04,11.30
2007,10,24,12,05,11.40
2007,10,24,12,06,11.40
2007,10,24,12,07,11.40
2007,10,24,12,08,11.40
2007,10,24,12,09,11.40
2007,10,24,12,10,11.40
2007,10,24,12,11,11.40
2007,10,24,12,12,11.40
2007,10,24,12,13,11.30
2007,10,24,12,14,11.30
2007,10,24,12,15,11.20
2007,10,24,12,16,11.20
2007,10,24,12,17,11.20
2007,10,24,12,18,11.20
2007,10,24,12,19,11.20
2007,10,24,12,20,11.20
2007,10,24,12,21,11.20
2007,10,24,12,22,11.20
2007,10,24,12,23,11.20
2007,10,24,12,24,11.30
2007,10,24,12,25,11.30
2007,10,24,12,26,11.30
2007,10,24,12,27,11.30
2007,10,24,12,28,11.30
2007,10,24,12,29,11.30
2007,10,24,12,30,11.30
2007,10,24,12,31,11.40
2007,10,24,12,32,11.30
2007,10,24,12,33,11.30
2007,10,24,12,34,11.30
2007,10,24,12,35,11.30
2007,10,24,12,36,11.30
2007,10,24,12,37,11.30
2007,10,24,12,38,11.30
2007,10,24,12,39,11.30
2007,10,24,12,40,11.40
2007,10,24,12,41,11.40
2007,10,24,12,42,11.50
2007,10,24,12,43,11.60
2007,10,24,12,44,11.60
2007,10,24,12,45,11.60
2007,10,24,12,46,11.60
2007,10,24,12,47,11.70
2007,10,24,12,48,11.70
2007,10,24,12,49,11.80
2007,10,24,12,50,11.80
2007,10,24,12,51,11.80
2007,10,24,12,52,11.80
2007,10,24,12,53,11.90
2007,10,24,12,54,11.90
2007,10,24,12,55,11.90
2007,10,24,12,56,11.90
2007,10,24,12,57,11.90
2007,10,24,12,58,11.90
2007,10,24,12,59,11.90
2007,10,24,13,00,12.00
2007,10,24,13,01,12.10
2007,10,24,13,02,12.10
2007,10,24,13,03,12.10
2007,10,24,13,04,12.10
2007,10,24,13,05,12.10
2007,10,24,13,06,12.10
2007,10,24,13,07,12.10
2007,10,24,13,08,12.10
2007,10,24,13,09,12.10
2007,10,24,13,10,12.10
2007,10,24,13,11,12.10
2007,10,24,13,12,12.10
2007,10,24,13,13,12.10
2007,10,24,13,14,12.10
2007,10,24,13,15,12.10
2007,10,24,13,16,12.10
2007,10,24,13,17,12.10
2007,10,24,13,18,12.20
2007,10,24,13,19,12.20
2007,10,24,13,20,12.30
2007,10,24,13,21,12.30
2007,10,24,13,22,12.30
2007,10,24,13,23,12.40
2007,10,24,13,24,12.40
2007,10,24,13,25,12.40
2007,10,24,13,26,12.40
2007,10,24,13,27,12.40
2007,10,24,13,28,12.40
2007,10,24,13,29,12.40
2007,10,24,13,30,12.40
2007,10,24,13,31,12.40
2007,10,24,13,32,12.40
2007,10,24,13,33,12.50
2007,10,24,13,34,12.50
2007,10,24,13,35,12.50
2007,10,24,13,36,12.50
2007,10,24,13,37,12.50
2007,10,24,13,38,12.50
2007,10,24,13,39,12.40
2007,10,24,13,40,12.40
2007,10,24,13,41,12.40
2007,10,24,13,42,12.40
2007,10,24,13,43,12.40
2007,10,24,13,44,12.40
2007,10,24,13,45,12.40
2007,10,24,13,46,12.40
2007,10,24,13,47,12.40
2007,10,24,13,48,12.40
2007,10,24,13,49,12.50
2007,10,24,13,50,12.50
2007,10,24,13,51,12.60
2007,10,24,13,52,12.60
2007,10,24,13,53,12.50
2007,10,24,13,54,12.40
2007,10,24,13,55,12.40
2007,10,24,13,56,12.40
2007,10,24,13,57,12.50
2007,10,24,13,58,12.50
2007,10,24,13,59,12.60
2007,10,24,14,00,12.60
2007,10,24,14,01,12.70
2007,10,24,14,02,12.70
2007,10,24,14,03,12.60
2007,10,24,14,04,12.60
2007,10,24,14,05,12.60
2007,10,24,14,06,12.60
2007,10,24,14,07,12.70
2007,10,24,14,08,12.60
2007,10,24,14,09,12.50
2007,10,24,14,10,12.40
2007,10,24,14,11,12.40
2007,10,24,14,12,12.50
2007,10,24,14,13,12.50
2007,10,24,14,14,12.50
2007,10,24,14,15,12.50
2007,10,24,14,16,12.40
2007,10,24,14,17,12.40
2007,10,24,14,18,12.40
2007,10,24,14,19,12.40
2007,10,24,14,20,12.50
2007,10,24,14,21,12.60
2007,10,24,14,22,12.60
2007,10,24,14,23,12.70
2007,10,24,14,24,12.70
2007,10,24,14,25,12.70
2007,10,24,14,26,12.70
2007,10,24,14,27,12.70
2007,10,24,14,28,12.70
2007,10,24,14,29,12.70
2007,10,24,14,30,12.70
2007,10,24,14,31,12.60
2007,10,24,14,32,12.60
2007,10,24,14,33,12.60
2007,10,24,14,34,12.60
2007,10,24,14,35,12.60
2007,10,24,14,36,12.60
2007,10,24,14,37,12.60
2007,10,24,14,38,12.70
2007,10,24,14,39,12.70
2007,10,24,14,40,12.80
2007,10,24,14,41,12.80
2007,10,24,14,42,12.80
2007,10,24,14,43,12.80
2007,10,24,14,44,12.70
2007,10,24,14,45,12.70
2007,10,24,14,46,12.60
2007,10,24,14,47,12.50
2007,10,24,14,48,12.50
2007,10,24,14,49,12.40
2007,10,24,14,50,12.30
2007,10,24,14,51,12.30
2007,10,24,14,52,12.20
2007,10,24,14,53,12.20
2007,10,24,14,54,12.10
2007,10,24,14,55,12.10
2007,10,24,14,56,12.10
2007,10,24,14,57,12.00
2007,10,24,14,58,12.00
2007,10,24,14,59,11.90
2007,10,24,15,00,11.90
2007,10,24,15,01,11.90
2007,10,24,15,02,11.90
2007,10,24,15,03,11.90
2007,10,24,15,04,11.90
2007,10,24,15,05,11.90
2007,10,24,15,06,11.80
2007,10,24,15,07,11.80
2007,10,24,15,08,11.80
2007,10,24,15,09,11.80
2007,10,24,15,10,11.70
2007,10,24,15,11,11.70
2007,10,24,15,12,11.70
2007,10,24,15,13,11.70
2007,10,24,15,14,11.60
2007,10,24,15,15,11.60
2007,10,24,15,16,11.60
2007,10,24,15,17,11.60
2007,10,24,15,18,11.50
2007,10,24,15,19,11.50
2007,10,24,15,20,11.50
2007,10,24,15,21,11.50
2007,10,24,15,22,11.50
2007,10,24,15,23,11.50
2007,10,24,15,24,11.50
2007,10,24,15,25,11.50
2007,10,24,15,26,11.50
2007,10,24,15,27,11.50
2007,10,24,15,28,11.50
2007,10,24,15,29,11.50
2007,10,24,15,30,11.50
2007,10,24,15,31,11.50
2007,10,24,15,32,11.40
2007,10,24,15,33,11.40
2007,10,24,15,34,11.40
2007,10,24,15,35,11.40
2007,10,24,15,36,11.40
2007,10,24,15,37,11.30
2007,10,24,15,38,11.30
2007,10,24,15,39,11.30
2007,10,24,15,40,11.30
2007,10,24,15,41,11.30
2007,10,24,15,42,11.20
2007,10,24,15,43,11.20
2007,10,24,15,44,11.20
2007,10,24,15,45,11.20
2007,10,24,15,46,11.20
2007,10,24,15,47,11.20
2007,10,24,15,48,11.20
2007,10,24,15,49,11.20
2007,10,24,15,50,11.20
2007,10,24,15,51,11.20
2007,10,24,15,52,11.30
2007,10,24,15,53,11.30
2007,10,24,15,54,11.30
2007,10,24,15,55,11.30
2007,10,24,15,56,11.30
2007,10,24,15,57,11.40
2007,10,24,15,58,11.40
2007,10,24,15,59,11.40
2007,10,24,16,00,11.40
2007,10,24,16,01,11.30
2007,10,24,16,02,11.30
2007,10,24,16,03,11.30
2007,10,24,16,04,11.40
2007,10,24,16,05,11.30
2007,10,24,16,06,11.30
2007,10,24,16,07,11.30
2007,10,24,16,08,11.30
2007,10,24,16,09,11.30
2007,10,24,16,10,11.30
2007,10,24,16,11,11.30
2007,10,24,16,12,11.30
2007,10,24,16,13,11.30
2007,10,24,16,14,11.30
2007,10,24,16,15,11.30
2007,10,24,16,16,11.30
2007,10,24,16,17,11.30
2007,10,24,16,18,11.30
2007,10,24,16,19,11.30
2007,10,24,16,20,11.30
2007,10,24,16,21,11.30
2007,10,24,16,22,11.30
2007,10,24,16,23,11.30
2007,10,24,16,24,11.30
2007,10,24,16,25,11.30
2007,10,24,16,26,11.30
2007,10,24,16,27,11.30
2007,10,24,16,28,11.30
2007,10,24,16,29,11.40
2007,10,24,16,30,11.40
2007,10,24,16,31,11.40
2007,10,24,16,32,11.40
2007,10,24,16,33,11.40
2007,10,24,16,34,11.40
2007,10,24,16,35,11.40
2007,10,24,16,36,11.40
2007,10,24,16,37,11.40
2007,10,24,16,38,11.40
2007,10,24,16,39,11.40
2007,10,24,16,40,11.50
2007,10,24,16,41,11.50
2007,10,24,16,42,11.60
2007,10,24,16,43,11.70
2007,10,24,16,44,11.70
2007,10,24,16,45,11.80
2007,10,24,16,46,11.90
2007,10,24,16,47,11.90
2007,10,24,16,48,12.00
2007,10,24,16,49,12.10
2007,10,24,16,50,12.10
2007,10,24,16,51,12.20
2007,10,24,16,52,12.20
2007,10,24,16,53,12.20
2007,10,24,16,54,12.10
2007,10,24,16,55,12.10
2007,10,24,16,56,12.00
2007,10,24,16,57,12.00
2007,10,24,16,58,11.90
2007,10,24,16,59,11.80
2007,10,24,17,00,11.80
2007,10,24,17,01,11.70
2007,10,24,17,02,11.60
2007,10,24,17,03,11.50
2007,10,24,17,04,11.40
2007,10,24,17,05,11.30
2007,10,24,17,06,11.20
2007,10,24,17,07,11.10
2007,10,24,17,08,11.10
2007,10,24,17,09,11.00
2007,10,24,17,10,10.90
2007,10,24,17,11,10.90
2007,10,24,17,12,10.90
2007,10,24,17,13,10.90
2007,10,24,17,14,10.90
2007,10,24,17,15,10.90
2007,10,24,17,16,10.90
2007,10,24,17,17,10.90
2007,10,24,17,18,10.90
2007,10,24,17,19,10.90